Location: Newark
(47.5989°N, 4.6950°E)
Time: 15:24:42
(UTC+00:00)

ISS - Pass Details

Date: 26 November 2019
Orbit: 412 x 421 km, 51.6° (Epoch: 05 December)

Event Time Altitude Azimuth Distance (km) Brightness Sun altitude
Rises 19:00:25 0° 272° (W) 2,359 1.2 -30.7°
Reaches altitude 10° 19:02:35 10° 280° (W) 1,498 -0.1 -31.0°
Enters shadow 19:02:58 13° 282° (WNW) 1,354 -0.4 -31.1°
